Terug naar catalogus

COSMOS 1692

ActiefNavigatiePO
NORAD 16140·PAYLOAD·🇷🇺 Russia

Gelanceerd Oct 9, 1985 vanaf Plesetsk Cosmodrome

Loading…

Volgende Passages (komende 24 uur)

TLE

VersSource: Space-Track

Epoch: Sep 14, 2026, 05:19 UTC

1 16140U 85094C   26257.22214486  .00000010  00000-0 -57565-5 0  9994
2 16140  82.6052 173.5603 0017898 160.5877 353.1932 12.64914780889631

Volg COSMOS 1692 in realtime met AllMySat

Download on the App Store